Location: Boiro
(42.6475°N, 8.8834°W)
Time: 11:20:16
(UTC+01:00)

Vanguard 2 Rocket - Pass Details

Date: 10 December 2021
Orbit: 554 x 3325 km, 32.9° (Epoch: 19 January)

Event Time Altitude Azimuth Distance (km) Brightness Sun altitude
Rises 19:18:15 0° 248° (WSW) 2,926 11.6 -13.5°
Reaches altitude 10° 19:20:23 10° 237° (WSW) 2,173 10.2 -13.9°
Maximum altitude 19:24:51 34° 173° (S) 1,467 8.0 -14.7°
Enters shadow 19:31:24 11° 113° (ESE) 3,273 9.3 -15.8°
